ECHOSTAR 23             
1 42070U 17014A   19263.89321726 -.00000274  00000-0  00000-0 0  9999
2 42070   0.0218 161.4462 0002018  22.7422  68.9579  1.00269953  9255
FALCON 9 R/B            
1 42071U 17014B   19265.20083577  .00017215  13023-6  46296-3 0  9993
2 42071  22.5897  22.2851 6807090 222.5771  57.7534  2.95133220 24313